Tanager 1

operational
NORAD ID: 60507 Int'l Des: 2024-149 Owner: PLAN Country: US
LEOCIRCULARRETROGRADESSO

Tanager 1について

説明を読み込み中...

リアルタイム位置

3D地球を読み込み中...

次回通過

高度履歴

Altitude vs Time

uPlot chart will show altitude changes over time

軌道要素

1 60507U 24149AR 26062.21044526 .00005039 00000-0 11423-3 0 9999
2 60507 97.3799 155.4968 0007213 219.2528 140.8197 15.43535761 86682
Epoch: Mar 3, 2026 • Age: 24 hours

現在のステータス

高度 446.3 km
速度 7.65 km/s
衛星直下点 59.33°N, 176.53°W
打ち上げ日 Aug 16, 2024
運用期間 1.5 years
タイプ earth observation

技術仕様

分類 Payload
質量 150.00 kg
乾燥質量 140.00 kg
総質量 150.00 kg
長さ 2.30 m
直径 0.60 m
スパン 3.00 m
形状 Box+2 pan
製造者 PLAN
バスタイプ Tanager
フェーズステータス In Orbit
所有者/国 PLAN/US

大規模コンステレーション

Loading constellations...